Time,TemperatureF,DewpointF,PressureIn,WindDirection,WindDirectionDegrees,WindSpeedMPH,WindSpeedGustMPH,Humidity,HourlyPrecipIn,Conditions,Clouds,dailyrainin,SoftwareType,DateUTC
2013-09-03 00:01:00,81.6,67.3,29.96,SSW,193,0.0,0.0,62,0.00,,CLR,0.00,VWS V14.01,2013-09-03 05:01:00,
2013-09-03 00:06:00,81.6,67.8,29.96,SSW,193,0.0,0.0,63,0.00,,CLR,0.00,VWS V14.01,2013-09-03 05:06:00,
2013-09-03 00:11:00,81.4,68.1,29.96,SSE,160,0.0,4.0,64,0.00,,CLR,0.00,VWS V14.01,2013-09-03 05:11:00,
2013-09-03 00:16:00,81.2,67.9,29.96,SSE,160,0.0,0.0,64,0.00,,CLR,0.00,VWS V14.01,2013-09-03 05:16:00,
2013-09-03 00:21:00,81.1,68.2,29.96,SSE,160,0.0,0.0,65,0.00,,CLR,0.00,VWS V14.01,2013-09-03 05:21:00,
2013-09-03 00:26:00,81.1,68.2,29.96,SSE,167,0.0,0.0,65,0.00,,CLR,0.00,VWS V14.01,2013-09-03 05:26:00,
2013-09-03 00:31:00,81.1,68.7,29.96,SSE,167,0.0,0.0,66,0.00,,CLR,0.00,VWS V14.01,2013-09-03 05:31:00,
2013-09-03 00:36:00,80.9,68.5,29.96,SSE,167,0.0,0.0,66,0.00,,CLR,0.00,VWS V14.01,2013-09-03 05:36:00,
2013-09-03 00:41:00,80.9,68.5,29.96,South,184,0.0,0.0,66,0.00,,CLR,0.00,VWS V14.01,2013-09-03 05:41:00,
2013-09-03 00:46:00,80.9,68.5,29.96,South,184,0.0,0.0,66,0.00,,CLR,0.00,VWS V14.01,2013-09-03 05:46:00,
2013-09-03 00:51:00,80.9,68.9,29.96,South,184,0.0,0.0,67,0.00,,CLR,0.00,VWS V14.01,2013-09-03 05:51:00,
2013-09-03 00:56:00,80.7,68.7,29.96,South,184,0.0,3.0,67,0.00,,CLR,0.00,VWS V14.01,2013-09-03 05:56:00,
2013-09-03 01:01:00,80.7,68.7,29.96,South,179,0.0,5.0,67,0.00,,CLR,0.00,VWS V14.01,2013-09-03 06:01:00,
2013-09-03 01:06:00,80.5,69.0,29.96,South,179,0.0,1.0,68,0.00,,CLR,0.00,VWS V14.01,2013-09-03 06:06:00,
2013-09-03 01:11:00,80.3,68.8,29.96,South,179,0.0,1.0,68,0.00,,CLR,0.00,VWS V14.01,2013-09-03 06:11:00,
2013-09-03 01:16:00,80.3,69.2,29.96,South,179,0.0,0.0,69,0.00,,CLR,0.00,VWS V14.01,2013-09-03 06:16:00,
2013-09-03 01:21:00,80.3,69.2,29.95,South,179,0.0,0.0,69,0.00,,CLR,0.00,VWS V14.01,2013-09-03 06:21:00,
2013-09-03 01:26:00,80.1,69.0,29.95,South,179,0.0,0.0,69,0.00,,CLR,0.00,VWS V14.01,2013-09-03 06:26:00,
2013-09-03 01:31:00,80.1,69.0,29.95,South,179,0.0,0.0,69,0.00,,CLR,0.00,VWS V14.01,2013-09-03 06:31:00,
2013-09-03 01:36:00,80.1,69.0,29.95,South,179,0.0,0.0,69,0.00,,CLR,0.00,VWS V14.01,2013-09-03 06:36:00,
2013-09-03 01:41:00,80.1,69.0,29.95,South,179,0.0,0.0,69,0.00,,CLR,0.00,VWS V14.01,2013-09-03 06:41:00,
2013-09-03 01:46:00,79.9,69.2,29.95,South,179,0.0,0.0,70,0.00,,CLR,0.00,VWS V14.01,2013-09-03 06:46:00,
2013-09-03 01:51:00,79.9,69.2,29.96,South,179,0.0,0.0,70,0.00,,CLR,0.00,VWS V14.01,2013-09-03 06:51:00,
2013-09-03 01:56:00,79.8,69.2,29.96,South,179,0.0,0.0,70,0.00,,CLR,0.00,VWS V14.01,2013-09-03 06:56:00,
2013-09-03 02:01:00,79.8,69.2,29.96,South,179,0.0,0.0,70,0.00,,CLR,0.00,VWS V14.01,2013-09-03 07:01:00,
2013-09-03 02:06:00,79.8,69.2,29.96,South,179,0.0,0.0,70,0.00,,CLR,0.00,VWS V14.01,2013-09-03 07:06:00,
2013-09-03 02:11:00,79.8,69.2,29.96,South,179,0.0,0.0,70,0.00,,CLR,0.00,VWS V14.01,2013-09-03 07:11:00,
2013-09-03 02:16:00,79.6,69.0,29.96,South,179,0.0,0.0,70,0.00,,CLR,0.00,VWS V14.01,2013-09-03 07:16:00,
2013-09-03 02:21:00,79.6,69.0,29.95,South,179,0.0,0.0,70,0.00,,CLR,0.00,VWS V14.01,2013-09-03 07:21:00,
2013-09-03 02:26:00,79.6,69.0,29.95,South,179,0.0,0.0,70,0.00,,CLR,0.00,VWS V14.01,2013-09-03 07:26:00,
2013-09-03 02:31:00,79.4,69.2,29.95,South,179,0.0,0.0,71,0.00,,CLR,0.00,VWS V14.01,2013-09-03 07:31:00,
2013-09-03 02:36:00,79.2,69.0,29.95,South,179,0.0,0.0,71,0.00,,CLR,0.00,VWS V14.01,2013-09-03 07:36:00,
2013-09-03 02:41:00,79.0,68.8,29.95,South,179,0.0,0.0,71,0.00,,CLR,0.00,VWS V14.01,2013-09-03 07:41:00,
2013-09-03 02:46:00,78.8,68.6,29.95,South,179,0.0,0.0,71,0.00,,CLR,0.00,VWS V14.01,2013-09-03 07:46:00,
2013-09-03 02:51:00,78.8,68.6,29.94,South,179,0.0,0.0,71,0.00,,CLR,0.00,VWS V14.01,2013-09-03 07:51:00,
2013-09-03 02:56:00,78.8,69.0,29.94,South,179,0.0,0.0,72,0.00,,CLR,0.00,VWS V14.01,2013-09-03 07:56:00,
2013-09-03 03:01:00,78.6,68.8,29.94,South,179,0.0,0.0,72,0.00,,CLR,0.00,VWS V14.01,2013-09-03 08:01:00,
2013-09-03 03:06:00,78.5,68.7,29.94,South,179,0.0,0.0,72,0.00,,CLR,0.00,VWS V14.01,2013-09-03 08:06:00,
2013-09-03 03:11:00,78.3,68.9,29.94,South,179,0.0,0.0,73,0.00,,CLR,0.00,VWS V14.01,2013-09-03 08:11:00,
2013-09-03 03:16:00,78.3,68.9,29.94,South,179,0.0,0.0,73,0.00,,CLR,0.00,VWS V14.01,2013-09-03 08:16:00,
2013-09-03 03:21:00,78.1,68.8,29.94,South,179,0.0,0.0,73,0.00,,CLR,0.00,VWS V14.01,2013-09-03 08:21:00,
2013-09-03 03:26:00,78.1,68.8,29.94,South,179,0.0,0.0,73,0.00,,CLR,0.00,VWS V14.01,2013-09-03 08:26:00,
2013-09-03 03:31:00,78.1,68.8,29.94,South,179,0.0,0.0,73,0.00,,CLR,0.00,VWS V14.01,2013-09-03 08:31:00,
2013-09-03 03:36:00,77.9,68.6,29.94,South,179,0.0,0.0,73,0.00,,CLR,0.00,VWS V14.01,2013-09-03 08:36:00,
2013-09-03 03:41:00,77.9,68.9,29.94,South,179,0.0,0.0,74,0.00,,CLR,0.00,VWS V14.01,2013-09-03 08:41:00,
2013-09-03 03:46:00,77.9,68.9,29.94,South,179,0.0,0.0,74,0.00,,CLR,0.00,VWS V14.01,2013-09-03 08:46:00,
2013-09-03 03:51:00,78.1,69.1,29.94,South,179,0.0,0.0,74,0.00,,CLR,0.00,VWS V14.01,2013-09-03 08:51:00,
2013-09-03 03:56:00,77.9,68.9,29.94,South,179,0.0,0.0,74,0.00,,CLR,0.00,VWS V14.01,2013-09-03 08:56:00,
2013-09-03 04:01:00,77.9,68.9,29.94,South,179,0.0,0.0,74,0.00,,CLR,0.00,VWS V14.01,2013-09-03 09:01:00,
2013-09-03 04:06:00,77.9,68.9,29.94,South,179,0.0,0.0,74,0.00,,CLR,0.00,VWS V14.01,2013-09-03 09:06:00,
2013-09-03 04:11:00,77.9,68.9,29.94,South,179,0.0,0.0,74,0.00,,CLR,0.00,VWS V14.01,2013-09-03 09:11:00,
2013-09-03 04:16:00,77.7,68.8,29.94,South,179,0.0,0.0,74,0.00,,CLR,0.00,VWS V14.01,2013-09-03 09:16:00,
2013-09-03 04:21:00,77.9,68.9,29.94,South,179,0.0,0.0,74,0.00,,CLR,0.00,VWS V14.01,2013-09-03 09:21:00,
2013-09-03 04:26:00,77.9,68.9,29.94,South,179,0.0,0.0,74,0.00,,CLR,0.00,VWS V14.01,2013-09-03 09:26:00,
2013-09-03 04:31:00,77.9,68.9,29.94,South,179,0.0,0.0,74,0.00,,CLR,0.00,VWS V14.01,2013-09-03 09:31:00,
2013-09-03 04:36:00,77.7,68.8,29.94,South,179,0.0,0.0,74,0.00,,CLR,0.00,VWS V14.01,2013-09-03 09:36:00,
2013-09-03 04:41:00,77.6,68.7,29.94,South,179,0.0,0.0,74,0.00,,CLR,0.00,VWS V14.01,2013-09-03 09:41:00,
2013-09-03 04:46:00,77.4,68.9,29.94,South,179,0.0,0.0,75,0.00,,CLR,0.00,VWS V14.01,2013-09-03 09:46:00,
2013-09-03 04:51:00,77.4,68.9,29.94,South,179,0.0,0.0,75,0.00,,CLR,0.00,VWS V14.01,2013-09-03 09:51:00,
2013-09-03 04:56:00,77.4,68.9,29.94,South,179,0.0,0.0,75,0.00,,CLR,0.00,VWS V14.01,2013-09-03 09:56:00,
2013-09-03 05:01:00,77.4,68.9,29.94,South,179,0.0,0.0,75,0.00,,CLR,0.00,VWS V14.01,2013-09-03 10:01:00,
2013-09-03 05:06:00,77.2,68.7,29.94,South,179,0.0,0.0,75,0.00,,CLR,0.00,VWS V14.01,2013-09-03 10:06:00,
2013-09-03 05:11:00,77.0,68.9,29.94,South,179,0.0,0.0,76,0.00,,CLR,0.00,VWS V14.01,2013-09-03 10:11:00,
2013-09-03 05:16:00,77.0,68.9,29.94,South,179,0.0,0.0,76,0.00,,CLR,0.00,VWS V14.01,2013-09-03 10:16:00,
2013-09-03 05:21:00,76.8,68.7,29.95,South,179,0.0,0.0,76,0.00,,CLR,0.00,VWS V14.01,2013-09-03 10:21:00,
2013-09-03 05:26:00,76.8,68.7,29.95,South,179,0.0,0.0,76,0.00,,CLR,0.00,VWS V14.01,2013-09-03 10:26:00,
2013-09-03 05:31:00,76.8,69.1,29.95,South,179,0.0,0.0,77,0.00,,CLR,0.00,VWS V14.01,2013-09-03 10:31:00,
2013-09-03 05:36:00,76.7,68.9,29.95,South,179,0.0,0.0,77,0.00,,CLR,0.00,VWS V14.01,2013-09-03 10:36:00,
2013-09-03 05:41:00,76.7,68.9,29.95,South,179,0.0,0.0,77,0.00,,CLR,0.00,VWS V14.01,2013-09-03 10:41:00,
2013-09-03 05:46:00,76.7,68.9,29.95,South,179,0.0,0.0,77,0.00,,CLR,0.00,VWS V14.01,2013-09-03 10:46:00,
2013-09-03 05:51:00,76.5,68.8,29.96,South,179,0.0,0.0,77,0.00,,CLR,0.00,VWS V14.01,2013-09-03 10:51:00,
2013-09-03 05:56:00,76.5,68.8,29.96,South,179,0.0,0.0,77,0.00,,CLR,0.00,VWS V14.01,2013-09-03 10:56:00,
2013-09-03 06:01:00,76.5,68.8,29.96,South,179,0.0,0.0,77,0.00,,CLR,0.00,VWS V14.01,2013-09-03 11:01:00,
2013-09-03 06:06:00,76.5,68.8,29.96,South,179,0.0,0.0,77,0.00,,CLR,0.00,VWS V14.01,2013-09-03 11:06:00,
2013-09-03 06:11:00,76.5,68.8,29.96,South,179,0.0,0.0,77,0.00,,CLR,0.00,VWS V14.01,2013-09-03 11:11:00,
2013-09-03 06:16:00,76.3,68.9,29.96,South,179,0.0,0.0,78,0.00,,CLR,0.00,VWS V14.01,2013-09-03 11:16:00,
2013-09-03 06:21:00,76.3,68.9,29.96,South,179,0.0,0.0,78,0.00,,CLR,0.00,VWS V14.01,2013-09-03 11:21:00,
2013-09-03 06:26:00,76.1,68.8,29.96,South,179,0.0,0.0,78,0.00,,CLR,0.00,VWS V14.01,2013-09-03 11:26:00,
2013-09-03 06:31:00,76.0,68.7,29.96,South,179,0.0,0.0,78,0.00,,CLR,0.00,VWS V14.01,2013-09-03 11:31:00,
2013-09-03 06:36:00,75.8,68.5,29.96,South,179,0.0,0.0,78,0.00,,CLR,0.00,VWS V14.01,2013-09-03 11:36:00,
2013-09-03 06:41:00,75.8,68.5,29.96,South,179,0.0,0.0,78,0.00,,CLR,0.00,VWS V14.01,2013-09-03 11:41:00,
2013-09-03 06:46:00,76.0,69.0,29.96,South,179,0.0,0.0,79,0.00,,CLR,0.00,VWS V14.01,2013-09-03 11:46:00,
2013-09-03 06:51:00,76.0,69.0,29.96,South,179,0.0,0.0,79,0.00,,CLR,0.00,VWS V14.01,2013-09-03 11:51:00,
2013-09-03 06:55:00,76.0,68.7,29.96,South,179,0.0,0.0,78,0.00,,CLR,0.00,VWS V14.01,2013-09-03 11:55:00,
2013-09-03 07:00:00,76.1,68.8,29.96,South,179,0.0,0.0,78,0.00,,CLR,0.00,VWS V14.01,2013-09-03 12:00:00,
2013-09-03 07:05:00,76.1,68.8,29.96,South,179,0.0,0.0,78,0.00,,CLR,0.00,VWS V14.01,2013-09-03 12:05:00,
2013-09-03 07:10:00,76.0,68.7,29.96,South,179,0.0,0.0,78,0.00,,CLR,0.00,VWS V14.01,2013-09-03 12:10:00,
2013-09-03 07:15:00,76.0,68.7,29.96,South,179,0.0,0.0,78,0.00,,CLR,0.00,VWS V14.01,2013-09-03 12:15:00,
2013-09-03 07:20:00,76.0,68.7,29.97,South,179,0.0,0.0,78,0.00,,CLR,0.00,VWS V14.01,2013-09-03 12:20:00,
2013-09-03 07:25:00,75.8,68.5,29.97,South,179,0.0,0.0,78,0.00,,CLR,0.00,VWS V14.01,2013-09-03 12:25:00,
2013-09-03 07:30:00,75.8,68.8,29.97,South,179,0.0,0.0,79,0.00,,CLR,0.00,VWS V14.01,2013-09-03 12:30:00,
2013-09-03 07:35:00,75.6,68.6,29.98,South,179,0.0,0.0,79,0.00,,CLR,0.00,VWS V14.01,2013-09-03 12:35:00,
2013-09-03 07:40:00,75.8,68.8,29.98,South,179,0.0,0.0,79,0.00,,CLR,0.00,VWS V14.01,2013-09-03 12:40:00,
2013-09-03 07:45:00,76.0,69.0,29.98,South,179,0.0,0.0,79,0.00,,CLR,0.00,VWS V14.01,2013-09-03 12:45:00,
2013-09-03 07:50:00,76.5,69.5,29.98,South,179,0.0,0.0,79,0.00,,CLR,0.00,VWS V14.01,2013-09-03 12:50:00,
2013-09-03 07:55:00,77.0,69.2,29.98,South,179,0.0,0.0,77,0.00,,CLR,0.00,VWS V14.01,2013-09-03 12:55:00,
2013-09-03 08:00:00,77.2,69.4,29.98,South,179,0.0,0.0,77,0.00,,CLR,0.00,VWS V14.01,2013-09-03 13:00:00,
2013-09-03 08:05:00,77.4,69.2,29.99,South,179,0.0,0.0,76,0.00,,CLR,0.00,VWS V14.01,2013-09-03 13:05:00,
2013-09-03 08:10:00,77.7,69.5,29.99,South,179,0.0,0.0,76,0.00,,CLR,0.00,VWS V14.01,2013-09-03 13:10:00,
2013-09-03 08:15:00,77.9,69.3,29.99,South,179,0.0,0.0,75,0.00,,CLR,0.00,VWS V14.01,2013-09-03 13:15:00,
2013-09-03 08:20:00,78.3,69.3,29.99,South,179,0.0,0.0,74,0.00,,CLR,0.00,VWS V14.01,2013-09-03 13:20:00,
2013-09-03 08:25:00,78.5,69.5,29.99,South,179,0.0,0.0,74,0.00,,CLR,0.00,VWS V14.01,2013-09-03 13:25:00,
2013-09-03 08:30:00,78.8,69.8,29.99,South,180,0.0,3.0,74,0.00,,CLR,0.00,VWS V14.01,2013-09-03 13:30:00,
2013-09-03 08:35:00,79.2,70.2,30.00,South,180,0.0,0.0,74,0.00,,CLR,0.00,VWS V14.01,2013-09-03 13:35:00,
2013-09-03 08:40:00,79.6,69.8,30.00,South,180,0.0,0.0,72,0.00,,CLR,0.00,VWS V14.01,2013-09-03 13:40:00,
2013-09-03 08:45:00,79.9,70.1,30.00,South,180,0.0,0.0,72,0.00,,CLR,0.00,VWS V14.01,2013-09-03 13:45:00,
2013-09-03 08:50:00,80.1,70.3,30.00,South,180,0.0,4.0,72,0.00,,CLR,0.00,VWS V14.01,2013-09-03 13:50:00,
2013-09-03 08:55:00,80.5,70.7,30.00,South,180,0.0,0.0,72,0.00,,CLR,0.00,VWS V14.01,2013-09-03 13:55:00,
2013-09-03 09:00:00,80.9,70.6,30.00,South,186,0.0,4.0,71,0.00,,CLR,0.00,VWS V14.01,2013-09-03 14:00:00,
2013-09-03 09:05:00,81.1,70.8,30.00,South,188,0.0,0.0,71,0.00,,CLR,0.00,VWS V14.01,2013-09-03 14:05:00,
2013-09-03 09:10:00,81.1,70.8,30.00,South,188,0.0,5.0,71,0.00,,CLR,0.00,VWS V14.01,2013-09-03 14:10:00,
2013-09-03 09:15:00,81.4,71.1,30.00,South,188,0.0,0.0,71,0.00,,CLR,0.00,VWS V14.01,2013-09-03 14:15:00,
2013-09-03 09:20:00,82.2,71.4,30.01,SSW,196,0.0,1.0,70,0.00,,CLR,0.00,VWS V14.01,2013-09-03 14:20:00,
2013-09-03 09:25:00,82.8,71.6,30.01,SSW,196,0.0,0.0,69,0.00,,CLR,0.00,VWS V14.01,2013-09-03 14:25:00,
2013-09-03 09:30:00,83.6,71.5,30.01,SSW,196,0.0,0.0,67,0.00,,CLR,0.00,VWS V14.01,2013-09-03 14:30:00,
2013-09-03 09:35:00,84.1,72.0,30.01,SSW,197,0.0,0.0,67,0.00,,CLR,0.00,VWS V14.01,2013-09-03 14:35:00,
2013-09-03 09:40:00,84.5,71.4,30.01,West,259,0.0,4.0,65,0.00,,CLR,0.00,VWS V14.01,2013-09-03 14:40:00,
2013-09-03 09:45:00,84.7,71.6,30.01,SSW,199,1.0,2.0,65,0.00,,CLR,0.00,VWS V14.01,2013-09-03 14:45:00,
2013-09-03 09:50:00,84.7,71.6,30.01,SW,223,0.0,4.0,65,0.00,,CLR,0.00,VWS V14.01,2013-09-03 14:50:00,
2013-09-03 09:55:00,85.1,71.6,30.01,WSW,242,0.0,0.0,64,0.00,,CLR,0.00,VWS V14.01,2013-09-03 14:55:00,
2013-09-03 10:00:00,85.5,71.9,30.01,WNW,284,0.0,4.0,64,0.00,,CLR,0.00,VWS V14.01,2013-09-03 15:00:00,
2013-09-03 10:05:00,86.3,71.3,30.01,South,173,0.0,5.0,61,0.00,,CLR,0.00,VWS V14.01,2013-09-03 15:05:00,
2013-09-03 10:10:00,86.5,71.5,30.01,South,176,0.0,5.0,61,0.00,,CLR,0.00,VWS V14.01,2013-09-03 15:10:00,
2013-09-03 10:15:00,87.0,71.9,30.01,South,176,0.0,0.0,61,0.00,,CLR,0.00,VWS V14.01,2013-09-03 15:15:00,
2013-09-03 10:20:00,87.2,71.1,30.01,South,179,0.0,4.0,59,0.00,,CLR,0.00,VWS V14.01,2013-09-03 15:20:00,
2013-09-03 10:25:00,87.4,70.8,30.01,SW,232,0.0,0.0,58,0.00,,CLR,0.00,VWS V14.01,2013-09-03 15:25:00,
2013-09-03 10:30:00,87.6,70.5,30.01,WSW,239,0.0,0.0,57,0.00,,CLR,0.00,VWS V14.01,2013-09-03 15:30:00,
2013-09-03 10:35:00,87.8,69.6,30.01,WSW,256,0.0,4.0,55,0.00,,CLR,0.00,VWS V14.01,2013-09-03 15:35:00,
2013-09-03 10:40:00,88.4,69.1,30.01,WSW,255,0.0,5.0,53,0.00,,CLR,0.00,VWS V14.01,2013-09-03 15:40:00,
2013-09-03 10:45:00,89.0,69.7,30.01,WSW,250,0.0,0.0,53,0.00,,CLR,0.00,VWS V14.01,2013-09-03 15:45:00,
2013-09-03 10:50:00,89.0,69.1,30.02,WSW,250,0.0,0.0,52,0.00,,CLR,0.00,VWS V14.01,2013-09-03 15:50:00,
2013-09-03 10:55:00,89.5,68.4,30.02,SSW,195,0.0,4.0,50,0.00,,CLR,0.00,VWS V14.01,2013-09-03 15:55:00,
2013-09-03 11:00:00,89.7,68.0,30.02,South,178,0.0,4.0,49,0.00,,CLR,0.00,VWS V14.01,2013-09-03 16:00:00,
2013-09-03 11:05:00,90.3,67.3,30.02,South,184,2.0,6.0,47,0.00,,CLR,0.00,VWS V14.01,2013-09-03 16:05:00,
2013-09-03 11:10:00,90.3,66.7,30.02,SSE,165,0.0,6.0,46,0.00,,CLR,0.00,VWS V14.01,2013-09-03 16:10:00,
2013-09-03 11:15:00,90.3,67.3,30.02,SSE,149,3.0,6.0,47,0.00,,CLR,0.00,VWS V14.01,2013-09-03 16:15:00,
2013-09-03 11:20:00,90.5,67.5,30.02,South,185,0.0,7.0,47,0.00,,CLR,0.00,VWS V14.01,2013-09-03 16:20:00,
2013-09-03 11:25:00,91.0,67.4,30.02,SSE,149,0.0,0.0,46,0.00,,CLR,0.00,VWS V14.01,2013-09-03 16:25:00,
2013-09-03 11:30:00,91.4,66.4,30.02,SSE,159,0.0,4.0,44,0.00,,CLR,0.00,VWS V14.01,2013-09-03 16:30:00,
2013-09-03 11:35:00,92.1,67.1,30.02,SSE,159,0.0,0.0,44,0.00,,CLR,0.00,VWS V14.01,2013-09-03 16:35:00,
2013-09-03 11:40:00,92.5,67.4,30.02,SE,144,3.0,4.0,44,0.00,,CLR,0.00,VWS V14.01,2013-09-03 16:40:00,
2013-09-03 11:45:00,92.7,66.3,30.02,SE,144,0.0,0.0,42,0.00,,CLR,0.00,VWS V14.01,2013-09-03 16:45:00,
2013-09-03 11:50:00,93.4,66.2,30.01,South,171,7.0,7.0,41,0.00,,CLR,0.00,VWS V14.01,2013-09-03 16:50:00,
2013-09-03 11:55:00,92.9,66.4,30.01,ESE,103,0.0,2.0,42,0.00,,CLR,0.00,VWS V14.01,2013-09-03 16:55:00,
2013-09-03 12:00:00,93.4,66.9,30.01,SE,142,0.0,6.0,42,0.00,,CLR,0.00,VWS V14.01,2013-09-03 17:00:00,
2013-09-03 12:05:00,93.8,65.8,30.01,South,173,5.0,5.0,40,0.00,,CLR,0.00,VWS V14.01,2013-09-03 17:05:00,
2013-09-03 12:10:00,94.3,65.6,30.01,South,185,1.0,6.0,39,0.00,,CLR,0.00,VWS V14.01,2013-09-03 17:10:00,
2013-09-03 12:15:00,94.3,65.6,30.01,SSE,165,2.0,4.0,39,0.00,,CLR,0.00,VWS V14.01,2013-09-03 17:15:00,
2013-09-03 12:20:00,94.3,65.6,30.01,SSW,194,0.0,5.0,39,0.00,,CLR,0.00,VWS V14.01,2013-09-03 17:20:00,
2013-09-03 12:25:00,94.3,64.8,30.01,SSW,195,0.0,0.0,38,0.00,,CLR,0.00,VWS V14.01,2013-09-03 17:25:00,
2013-09-03 12:30:00,94.7,65.9,30.01,WSW,254,3.0,5.0,39,0.00,,CLR,0.00,VWS V14.01,2013-09-03 17:30:00,
2013-09-03 12:35:00,94.9,66.1,30.00,West,260,0.0,0.0,39,0.00,,CLR,0.00,VWS V14.01,2013-09-03 17:35:00,
2013-09-03 12:40:00,94.5,66.5,30.00,NNW,333,0.0,6.0,40,0.00,,CLR,0.00,VWS V14.01,2013-09-03 17:40:00,
2013-09-03 12:45:00,94.7,65.9,30.00,North,355,0.0,0.0,39,0.00,,CLR,0.00,VWS V14.01,2013-09-03 17:45:00,
2013-09-03 12:50:00,95.6,65.2,30.00,ESE,108,0.0,4.0,37,0.00,,CLR,0.00,VWS V14.01,2013-09-03 17:50:00,
2013-09-03 12:55:00,96.3,65.0,30.00,North,355,1.0,3.0,36,0.00,,CLR,0.00,VWS V14.01,2013-09-03 17:55:00,
2013-09-03 13:00:00,96.6,65.3,30.00,North,355,0.0,3.0,36,0.00,,CLR,0.00,VWS V14.01,2013-09-03 18:00:00,
2013-09-03 13:05:00,96.6,65.3,29.99,North,355,0.0,0.0,36,0.00,,CLR,0.00,VWS V14.01,2013-09-03 18:05:00,
2013-09-03 19:04:00,98.7,59.0,29.88,ESE,107,0.0,0.0,27,0.00,,CLR,0.00,VWS V14.01,2013-09-04 00:04:00,
2013-09-03 19:09:00,98.5,58.8,29.88,SSE,158,0.0,3.0,27,0.00,,CLR,0.00,VWS V14.01,2013-09-04 00:09:00,
2013-09-03 19:14:00,98.2,58.5,29.88,SSE,163,0.0,0.0,27,0.00,,FEW095,0.00,VWS V14.01,2013-09-04 00:14:00,
2013-09-03 19:19:00,98.0,59.4,29.88,ESE,121,0.0,0.0,28,0.00,,FEW095,0.00,VWS V14.01,2013-09-04 00:19:00,
2013-09-03 19:24:00,98.0,59.4,29.88,ESE,121,0.0,0.0,28,0.00,,FEW095,0.00,VWS V14.01,2013-09-04 00:24:00,
2013-09-03 19:29:00,97.3,59.8,29.88,ESE,121,0.0,1.0,29,0.00,,FEW095,0.00,VWS V14.01,2013-09-04 00:29:00,
2013-09-03 19:34:00,96.8,61.2,29.88,ESE,108,0.0,0.0,31,0.00,,FEW095,0.00,VWS V14.01,2013-09-04 00:34:00,
2013-09-03 19:39:00,96.1,60.6,29.88,ESE,115,0.0,3.0,31,0.00,,FEW095,0.00,VWS V14.01,2013-09-04 00:39:00,
2013-09-03 19:44:00,95.9,61.3,29.88,ESE,115,0.0,0.0,32,0.00,,FEW095,0.00,VWS V14.01,2013-09-04 00:44:00,
2013-09-03 19:49:00,95.4,61.8,29.88,SE,136,0.0,0.0,33,0.00,,FEW095,0.00,VWS V14.01,2013-09-04 00:49:00,